Flag for Gambia Weather past 2 weeks in Banjul, Gambia

Now
75 °F

Clear.


Feels Like: 75 °F
Forecast: 75 / 87 °F
Wind: No wind

Location: Banjul / Yundum

Current Time: May 25, 2015 at 2:13:08 AM

Latest Report: May 25, 2015 at 1:00 AM


Visibility: 10 mi

Pressure: 29.89 "Hg

Humidity: 89%

Dew point: 72 °F

Location of BanjulLocation

Historic Weather in Banjul — Graph

°F

Banjul temperature yesterday

Maximum temperature yesterday: 95 °F (at 2:00 PM)
Minimum temperature yesterday: 75 °F (at 1:00 AM)
Average temperature yesterday: 81 °F

Past Weeks' High & Low Weather Summary

 TemperatureHumidityPressure
High95 °F (May 19, 4:00 AM)100% (May 14, 1:00 AM)30.01 "Hg (May 14, 1:00 AM)
Low73 °F (May 10, 5:00 AM)24% (May 17, 5:00 AM)29.77 "Hg (May 15, 4:00 PM)
Average80 °F72%29.87 "Hg
* Reported May 10 1:00 AM — May 25 1:00 AM, Banjul, Weather by CustomWeather, © 2015

Note: Actual official high and low records may vary slightly from our data, if they occured in-between our weather recording intervals... More about our weather records

Advertising

Banjul weather history for previous 24 hours

 ConditionsComfort  
Time TempWeatherWind HumidityBarometerVisibility
1:00 AM
Mon, May 25
75 °FClear.No wind89%29.89 "Hg10 mi
12:00 AM77 °FClear.12 mph83%29.89 "Hg10 mi
11:00 PM
Sun, May 24
77 °FClear.6 mph83%29.89 "Hg10 mi
10:00 PM77 °FClear.10 mph79%29.89 "Hg10 mi
9:00 PM79 °FClear.13 mph74%29.86 "Hg10 mi
8:00 PM79 °FClear.9 mph74%29.83 "Hg10 mi
7:00 PM81 °FSunny.14 mph74%29.83 "Hg10 mi
6:00 PM84 °FSunny.21 mph66%29.83 "Hg10 mi
5:00 PM86 °FSunny.18 mph62%29.83 "Hg10 mi
4:00 PM90 °FSunny.14 mph29%29.83 "Hg10 mi
3:00 PM93 °FSunny.14 mph47%29.86 "Hg10 mi
2:00 PM95 °FSunny.No wind34%29.86 "Hg10 mi
1:00 PM91 °FHot.No wind38%29.89 "HgN/A
12:00 PM90 °FSunny.6 mph43%29.89 "Hg10 mi
11:00 AM84 °FSunny.10 mph51%29.92 "Hg10 mi
10:00 AM81 °FBroken clouds.10 mph62%29.92 "HgN/A
9:00 AM81 °FSunny.12 mph58%29.92 "Hg10 mi
8:00 AM77 °FSunny.8 mph69%29.86 "Hg10 mi
7:00 AM75 °FSunny.3 mph89%29.86 "Hg10 mi
6:00 AM75 °FClear.7 mph83%29.86 "Hg10 mi
5:00 AM77 °FPassing clouds.12 mph79%29.83 "HgN/A
4:00 AM77 °FPassing clouds.8 mph83%29.86 "HgN/A
3:00 AM77 °FClear.10 mph79%29.86 "Hg10 mi
2:00 AM75 °FClear.6 mph89%29.86 "Hg10 mi
Weather by CustomWeather, © 2015

See weather overviewHow to use our weather pages